Regional Weather Roundup
Issued by NWS Cleveland, OH

Home | Current Version | Previous Version | Graphics & Text | Print | Product List | Glossary On
Versions: 1 2 3 4 5 6 7 8 9 10 11 12 13 14 15 16 17 18 19 20 21 22 23 24 25 26 27 28 29 30 31 32 33 34 35 36 37 38 39 40 41 42 43 44 45 46 47 48 49 50
000
ASUS41 KCLE 290502
RWRCLE
OHIO REGIONAL WEATHER ROUNDUP
NATIONAL WEATHER SERVICE CLEVELAND, OH
100 AM EDT MON AUG 29 2016

NOTE: "FAIR" INDICATES FEW OR NO CLOUDS BELOW 12,000 FEET WITH NO
SIGNIFICANT WEATHER AND/OR OBSTRUCTIONS TO VISIBILITY.

OHZ001>008-015>018-024>027-034-035-043-044-290600-
   NORTHWEST OHIO

CITY           SKY/WX    TMP DP  RH WIND       PRES   REMARKS
DEFIANCE       CLEAR     69  66  90 CALM      30.23S
FINDLAY        MOCLDY    72  68  87 W6        30.22R
TOLEDO EXPRESS MOCLDY    72  72 100 NW3       30.22S FOG
TOLEDO EXEC    CLEAR     73  72  96 CALM      30.22S
LIMA           CLEAR     68  67  96 W5        30.22F
$$

OHZ009>014-019>023-028>033-038-089-290600-
   NORTHEAST OHIO

CITY           SKY/WX    TMP DP  RH WIND       PRES   REMARKS
CLE-HOPKINS    MOCLDY    74  68  81 CALM      30.24S
CLE-LAKEFRONT  MOCLDY    77  73  87 NW6       30.21R
CUY CO. ARPT   NOT AVBL
LORAIN-ELYRIA  CLOUDY    67  66  97 CALM      30.23S
ASHTABULA      PTCLDY    69  69 100 CALM      30.23S FOG
AKRON-CANTON   PTCLDY    69  65  86 S3        30.24S
WOOSTER        CLOUDY    64  63  96 CALM      30.24S FOG
MANSFIELD      PTCLDY    70  68  93 NW3       30.24R
YOUNGSTOWN     MOCLDY    69  68  96 SE5       30.23F
$$

OHZ042-051>053-060>062-070>072-077>081-290600-
  SOUTHWEST OHIO

CITY           SKY/WX    TMP DP  RH WIND       PRES   REMARKS
CINC-COVINGTON MOCLDY    71  70  96 NW6       30.18F
CINC-LUNKEN    NOT AVBL
HAMILTON       MOCLDY    71  69  93 NW3       30.18F
DAYTON         CLOUDY    70  68  93 NE6       30.22R
WRIGHT-PAT AFB NOT AVBL
DAYTON GENERAL CLOUDY    72  67  84 N3        30.19R
WILMINGTON     PTCLDY    69  68  96 N3        30.19R
$$

OHZ036-037-039>041-045>050-054>059-063>069-073>076-082>088-290600-
  CENTRAL AND SOUTHEAST OHIO

CITY           SKY/WX    TMP DP  RH WIND       PRES   REMARKS
COLUMBUS       CLOUDY    73  69  87 NE5       30.20F
OSU AIRPORT    CLOUDY    74  69  85 SE5       30.22R
BOLTON FIELD   CLOUDY    72  69  89 NE5       30.22R
RICKENBACK AFB CLOUDY    72  69  90 NE7       30.20S
NEWARK         PTCLDY    71  69  93 N3        30.21F
MARION         PTCLDY    73  70  90 NW5       30.23S
LANCASTER      CLOUDY    72  69  90 CALM      30.22F
ZANESVILLE     PTCLDY    69  65  86 NW3       30.22R
NEW PHILLY     CLEAR     69  65  86 CALM      30.23F
$$



USA.gov is the U.S. government's official web portal to all federal, state and local government web resources and services.